Date,TemperatureHighF,TemperatureAvgF,TemperatureLowF,DewpointHighF,DewpointAvgF,DewpointLowF,HumidityHigh,HumidityAvg,HumidityLow,PressureMaxIn,PressureMinIn,WindSpeedMaxMPH,WindSpeedAvgMPH,GustSpeedMaxMPH,PrecipitationSumIn
2013-9-1,93,82,74,76,72,70,90,75,51,29.91,29.81,7,0,12,0.00
2013-9-2,92,82,74,80,73,70,89,74,53,29.93,29.81,7,0,12,0.02
2013-9-3,93,84,75,76,74,72,90,71,54,29.93,29.83,6,0,15,0.01
2013-9-4,94,82,75,76,73,70,89,75,51,30.01,29.91,5,0,13,0.23
2013-9-5,95,81,74,77,74,70,92,81,46,30.03,29.93,6,0,14,0.03
2013-9-6,90,78,74,76,73,71,91,85,62,30.00,29.92,7,0,15,0.01
2013-9-7,89,80,71,77,71,68,94,77,52,29.97,29.89,5,0,10,0.00
2013-9-8,90,80,72,73,68,62,91,70,40,29.93,29.85,4,0,12,0.01
2013-9-9,90,80,72,73,69,67,90,71,47,30.01,29.90,7,0,12,0.00
2013-9-10,90,81,73,72,70,67,89,70,50,30.08,29.98,8,1,17,0.00
2013-9-11,90,81,73,76,71,68,90,74,51,30.06,29.97,6,0,13,0.00
2013-9-12,89,80,73,77,72,70,90,77,57,29.99,29.83,4,0,10,0.11
2013-9-13,93,82,72,74,70,65,90,70,42,29.85,29.71,4,0,9,0.00
2013-9-14,92,81,74,76,72,68,89,76,48,29.93,29.75,6,0,14,0.06
2013-9-15,93,82,74,76,73,70,92,75,52,30.03,29.92,4,0,10,0.01
2013-9-16,91,82,75,79,74,71,91,77,56,30.03,29.93,4,0,12,0.04
2013-9-17,87,79,75,76,73,71,91,81,62,30.04,29.94,5,0,12,0.37
2013-9-18,85,77,74,77,72,68,94,85,67,30.06,29.97,7,1,20,4.74
2013-9-19,85,76,72,78,72,69,92,86,71,30.04,29.96,5,0,14,0.65
2013-9-20,86,77,71,73,69,67,92,78,57,30.00,29.87,4,0,12,0.00
2013-9-21,87,78,69,73,69,65,91,75,58,29.89,29.69,4,0,7,0.00
2013-9-22,84,77,74,74,72,70,90,83,72,29.78,29.67,8,0,12,0.13
2013-9-23,83,77,73,76,73,70,92,87,78,29.89,29.77,3,0,4,0.03
2013-9-24,85,78,75,78,74,72,93,87,73,29.89,29.76,3,0,9,0.59
2013-9-25,85,79,76,76,74,72,93,85,71,29.77,29.68,6,0,12,0.01
2013-9-26,78,76,71,75,71,67,92,86,78,29.85,29.67,4,0,10,0.01
2013-9-27,80,73,67,71,67,64,90,81,68,29.95,29.82,5,1,13,0.00
2013-9-28,77,73,70,70,67,62,92,82,63,30.01,29.91,6,1,14,0.07
2013-9-29,83,73,67,70,66,64,91,79,64,29.97,29.89,6,1,13,0.00
2013-9-30,82,73,67,70,64,62,91,75,56,29.98,29.88,6,0,14,0.00